カタログに戻る

STARLINK-6316

運用中通信VLEO
NORAD 57335·PAYLOAD·🇺🇸 United States

打ち上げ Jul 16, 2023 から Cape Canaveral Space Force Station

Loading…

次のパス (今後24時間)

TLE

最新Source: CelesTrak SupGP

元期: Sep 14, 2026, 15:04 UTC

1 57335C 23099H   26257.62826389 -.00037093  00000+0 -13434-2 0  2579
2 57335  43.0025 262.2883 0001390 292.1910 241.4626 15.27600734    18

AllMySatでSTARLINK-6316をリアルタイム追跡

Download on the App Store